Radioactive Concentration measured by Seawater Radiation Monitor near Fukushima Daiichi Nuclear Power Station
Date,Time,Cs137(Bq/L),Cs134(Bq/L),Total β(Bq/L)
2019/08/02,00:00,0.72,ND,ND
2019/08/02,00:10,0.70,ND,ND
2019/08/02,00:20,0.70,ND,ND
2019/08/02,00:30,0.69,ND,ND
2019/08/02,00:40,0.67,ND,ND
2019/08/02,00:50,0.69,ND,ND
2019/08/02,01:00,0.71,ND,ND
2019/08/02,01:10,0.71,ND,ND
2019/08/02,01:20,0.70,ND,ND
2019/08/02,01:30,0.71,ND,ND
2019/08/02,01:40,0.72,ND,ND
2019/08/02,01:50,0.70,ND,ND
2019/08/02,02:00,0.69,ND,ND
2019/08/02,02:10,0.69,ND,ND
2019/08/02,02:20,0.67,ND,ND
2019/08/02,02:30,0.66,ND,ND
2019/08/02,02:40,0.69,ND,ND
2019/08/02,02:50,0.68,ND,ND
2019/08/02,03:00,0.67,ND,ND
2019/08/02,03:10,0.67,ND,ND
2019/08/02,03:20,0.72,ND,ND
2019/08/02,03:30,0.67,ND,ND
2019/08/02,03:40,0.65,ND,ND
2019/08/02,03:50,0.66,ND,ND
2019/08/02,04:00,0.69,ND,ND
2019/08/02,04:10,0.71,ND,ND
2019/08/02,04:20,0.70,ND,ND
2019/08/02,04:30,0.71,ND,ND
2019/08/02,04:40,0.73,ND,ND
2019/08/02,04:50,0.71,ND,ND
2019/08/02,05:00,0.69,ND,ND
2019/08/02,05:10,0.67,ND,ND
2019/08/02,05:20,0.67,ND,ND
2019/08/02,05:30,0.66,ND,ND
2019/08/02,05:40,0.65,ND,ND
2019/08/02,05:50,0.66,ND,ND
2019/08/02,06:00,0.64,ND,ND
2019/08/02,06:10,0.61,ND,ND
2019/08/02,06:20,0.59,ND,ND
2019/08/02,06:30,0.61,ND,8.9
2019/08/02,06:40,0.61,ND,ND
2019/08/02,06:50,0.60,ND,ND
2019/08/02,07:00,0.63,ND,ND
2019/08/02,07:10,0.63,ND,ND
2019/08/02,07:20,0.65,ND,ND
2019/08/02,07:30,0.64,ND,ND
2019/08/02,07:40,0.62,ND,ND
2019/08/02,07:50,0.63,ND,ND
2019/08/02,08:00,0.64,ND,ND
2019/08/02,08:10,0.65,ND,ND
2019/08/02,08:20,0.66,ND,ND
2019/08/02,08:30,0.68,ND,ND
2019/08/02,08:40,0.71,ND,ND
2019/08/02,08:50,0.76,ND,ND
2019/08/02,09:00,0.78,ND,ND
2019/08/02,09:10,0.77,ND,ND
2019/08/02,09:20,0.76,ND,9.3
2019/08/02,09:30,0.72,ND,ND
2019/08/02,09:40,0.78,ND,ND
2019/08/02,09:50,0.73,ND,ND
2019/08/02,10:00,0.73,ND,ND
2019/08/02,10:10,0.75,ND,ND
2019/08/02,10:20,0.76,ND,ND
2019/08/02,10:30,0.76,ND,ND
2019/08/02,10:40,0.78,ND,ND
2019/08/02,10:50,0.79,ND,ND
2019/08/02,11:00,0.77,ND,ND
2019/08/02,11:10,0.78,ND,ND
2019/08/02,11:20,0.78,ND,ND
2019/08/02,11:30,0.79,ND,ND
2019/08/02,11:40,0.80,ND,ND
2019/08/02,11:50,0.79,ND,ND
2019/08/02,12:00,0.81,ND,ND
2019/08/02,12:10,0.81,ND,ND
2019/08/02,12:20,0.82,ND,ND
2019/08/02,12:30,0.83,ND,ND
2019/08/02,12:40,0.85,ND,ND
2019/08/02,12:50,0.85,ND,ND
2019/08/02,13:00,0.79,ND,ND
2019/08/02,13:10,0.78,ND,ND
2019/08/02,13:20,0.76,ND,ND
2019/08/02,13:30,0.72,ND,ND
2019/08/02,13:40,0.73,ND,ND
2019/08/02,13:50,0.74,ND,ND
2019/08/02,14:00,0.72,ND,ND
2019/08/02,14:10,0.72,ND,ND
2019/08/02,14:20,0.73,ND,ND
2019/08/02,14:30,0.74,ND,ND
2019/08/02,14:40,0.73,ND,ND
2019/08/02,14:50,0.74,ND,ND
2019/08/02,15:00,0.75,ND,ND
2019/08/02,15:10,0.74,ND,ND
2019/08/02,15:20,0.73,ND,ND
2019/08/02,15:30,0.70,ND,ND
2019/08/02,15:40,0.67,ND,ND
2019/08/02,15:50,0.63,ND,ND
2019/08/02,16:00,0.63,ND,ND
2019/08/02,16:10,0.62,ND,ND
2019/08/02,16:20,0.62,ND,ND
2019/08/02,16:30,0.62,ND,8.8
2019/08/02,16:40,0.62,ND,ND
2019/08/02,16:50,0.63,ND,ND
2019/08/02,17:00,0.63,ND,ND
2019/08/02,17:10,0.62,ND,ND
2019/08/02,17:20,0.61,ND,ND
2019/08/02,17:30,0.62,ND,ND
2019/08/02,17:40,0.61,ND,ND
2019/08/02,17:50,0.60,ND,ND
2019/08/02,18:00,0.60,ND,ND
2019/08/02,18:10,0.61,ND,ND
2019/08/02,18:20,0.64,ND,ND
2019/08/02,18:30,0.63,ND,ND
2019/08/02,18:40,0.65,ND,ND
2019/08/02,18:50,0.69,ND,ND
2019/08/02,19:00,0.71,ND,ND
2019/08/02,19:10,0.71,ND,ND
2019/08/02,19:20,0.71,ND,ND
2019/08/02,19:30,0.70,ND,ND
2019/08/02,19:40,0.69,ND,ND
2019/08/02,19:50,0.74,ND,ND
2019/08/02,20:00,0.76,ND,ND
2019/08/02,20:10,0.73,ND,ND
2019/08/02,20:20,0.74,ND,ND
2019/08/02,20:30,0.74,ND,ND
2019/08/02,20:40,0.76,ND,ND
2019/08/02,20:50,0.79,ND,ND
2019/08/02,21:00,0.78,ND,9.6
2019/08/02,21:10,0.78,ND,9.7
2019/08/02,21:20,0.78,ND,10
2019/08/02,21:30,0.80,ND,9.2
2019/08/02,21:40,0.79,ND,ND
2019/08/02,21:50,0.78,ND,ND
2019/08/02,22:00,0.74,ND,ND
2019/08/02,22:10,0.77,ND,ND
2019/08/02,22:20,0.76,ND,ND
2019/08/02,22:30,0.72,ND,ND
2019/08/02,22:40,0.73,ND,ND
2019/08/02,22:50,0.70,ND,ND
2019/08/02,23:00,0.73,ND,ND
2019/08/02,23:10,0.70,ND,ND
2019/08/02,23:20,0.69,ND,ND
2019/08/02,23:30,0.70,ND,ND
2019/08/02,23:40,0.70,ND,ND
2019/08/02,23:50,0.71,ND,ND
